Flag for U.S.A. Weather past 2 weeks in Nashville, Tennessee, U.S.A.

Now
81 °F

Passing clouds.


Feels Like: 85 °F
Forecast: 73 / 94 °F
Wind: 3 mph from Northeast

Location: Nashville International Airport

Current Time: Aug 27, 2014 at 10:31:47 PM

Latest Report: Aug 27, 2014 at 9:53 PM


Visibility: 10 mi

Pressure: 30.04 "Hg

Humidity: 72%

Dew point: 71 °F

Location of NashvilleLocation

Historic Weather in Nashville — Graph

°F

Nashville temperature yesterday

Maximum temperature yesterday: 88 °F (at 2:53 PM)
Minimum temperature yesterday: 73 °F (at 4:53 AM)
Average temperature yesterday: 79 °F

Past Weeks' High & Low Weather Summary

 TemperatureHumidityPressure
High95 °F (Aug 23, 3:53 PM)97% (Aug 20, 9:53 PM)30.15 "Hg (Aug 20, 9:53 PM)
Low60 °F (Aug 13, 5:53 AM)35% (Aug 14, 4:53 PM)29.82 "Hg (Aug 18, 4:53 PM)
Average79 °F73%29.99 "Hg
* Reported Aug 12 8:53 PM — Aug 27 8:53 PM, Nashville, Weather by CustomWeather, © 2014

Note: Actual official high and low records may vary slightly from our data, if they occured in-between our weather recording intervals... More about our weather records

Advertising

Nashville weather history for previous 24 hours

 ConditionsComfort  
Time TempWeatherWind HumidityBarometerVisibility
8:53 PM
Aug 27
82 °FPassing clouds.5 mph67%30.03 "Hg10 mi
7:53 PM83 °FPassing clouds.3 mph63%30.02 "Hg10 mi
6:53 PM86 °FScattered clouds.8 mph57%30.00 "Hg10 mi
5:53 PM89 °FScattered clouds.9 mph50%30.01 "Hg10 mi
4:53 PM91 °FScattered clouds.7 mph49%30.01 "Hg10 mi
3:53 PM91 °FPartly sunny.9 mph49%30.03 "Hg10 mi
2:53 PM90 °FPartly sunny.8 mph50%30.04 "Hg10 mi
1:53 PM89 °FBroken clouds.6 mph53%30.06 "Hg10 mi
12:53 PM90 °FBroken clouds.10 mph50%30.08 "Hg10 mi
11:53 AM89 °FBroken clouds.8 mph53%30.09 "Hg10 mi
10:53 AM85 °FBroken clouds.6 mph63%30.10 "Hg10 mi
9:53 AM85 °FScattered clouds.3 mph63%30.09 "Hg10 mi
8:53 AM81 °FScattered clouds.No wind72%30.09 "Hg10 mi
7:53 AM75 °FScattered clouds.No wind85%30.09 "Hg10 mi
6:53 AM71 °FBroken clouds.No wind93%30.09 "Hg9 mi
5:53 AM71 °FPartly cloudy.No wind93%30.07 "Hg10 mi
4:53 AM72 °FPassing clouds.No wind91%30.06 "Hg10 mi
3:53 AM71 °FPassing clouds.No wind93%30.06 "Hg10 mi
2:53 AM72 °FClear.No wind91%30.05 "Hg10 mi
1:53 AM73 °FClear.No wind90%30.06 "Hg10 mi
12:53 AM73 °FClear.No wind90%30.06 "Hg10 mi
11:53 PM
Aug 26
74 °FPassing clouds.No wind88%30.07 "Hg10 mi
10:53 PM76 °FPassing clouds.No wind82%30.07 "Hg10 mi
Weather by CustomWeather, © 2014

See weather overviewHow to use our weather pages